Location: Lombard
(41.8800°N, 88.0080°W)
Time: 07:01:53
(UTC-05:00)

A-11 Canister half - Pass Details

Date: 24 April 2025
Orbit: 1514 x 1685 km, 47.2° (Epoch: 13 May)

Event Time Altitude Azimuth Distance (km) Brightness Sun altitude
Rises 04:40:19 0° 179° (S) 4,653 11.2 -13.8°
Reaches altitude 10° 04:44:50 10° 160° (SSE) 3,665 10.9 -13.1°
Maximum altitude 04:50:01 17° 125° (SE) 3,178 11.0 -12.3°
Drops below altitude 10° 04:55:12 10° 90° (E) 3,682 12.0 -11.4°
Sets 04:59:42 0° 71° (ENE) 4,685 13.6 -10.7°
